Laconia, NH

6:50 PM EDT on August 21, 2017 (GMT -0400)
Laconia Municipal

Weather History for KLCI - January, 2013

Change the Weather History Date:

Sunday, January 13, 2013

  Actual Average Record
Temperature  
Mean Temperature 35 °F -  
Max Temperature 37 °F 29 °F 48 °F (2017)
Min Temperature 33 °F 11 °F -9 °F (1984)
Degree Days  
Heating Degree Days 30    
Moisture  
Dew Point 34 °F    
Average Humidity 93    
Maximum Humidity 100    
Minimum Humidity 87    
Precipitation  
Precipitation 0.00 in - - ()
Sea Level Pressure  
Sea Level Pressure 30.05 in    
Wind  
Wind Speed 3 mph (West)    
Max Wind Speed 9 mph    
Max Gust Speed -    
Visibility 1 miles    
Events      
Averages and records for this station are not official NWS values.
T = Trace of Precipitation, MM = Missing Value Source: NWS Daily Summary

Daily Weather History Graph

Daily Weather History Graph

Search for Another Location

Airport or City:

Trip Planner

Search our weather history database for the weather conditions in past years. The results will help you decide how hot, cold, wet, or windy it might be!

Date:

Astronomy

Jan. 13, 2013 Rise Set
Actual Time 7:16 AM EST 4:32 PM EST
Civil Twilight 6:44 AM EST 5:04 PM EST
Nautical Twilight 6:09 AM EST 5:40 PM EST
Astronomical Twilight 5:34 AM EST 6:14 PM EST
Moon 8:08 AM EST (1/13) 7:13 PM EST (1/13)
Length of Visible Light 10h 19m
Length of Day
9h 16m
Waxing Crescent, 5% of the Moon is Illuminated
Jan 13
Waxing Crescent
Jan 18
First Quarter
Jan 26
Full
Feb 3
Last Quarter
Feb 10
New

Hourly Weather History & Observations

Time (EST) Temp. Windchill Dew Point Humidity Pressure Visibility Wind Dir Wind Speed Gust Speed Precip Events Conditions
12:15 AM 35.6 °F 32.8 °F 33.8 °F 93% 30.10 in 0.5 mi West 3.5 mph - N/A   Overcast
12:35 AM 35.6 °F 29.9 °F 33.8 °F 93% 30.10 in 0.5 mi WSW 6.9 mph - N/A   Overcast
1:15 AM 35.6 °F 30.7 °F 35.6 °F 100% 30.09 in 1.5 mi West 5.8 mph - N/A   Overcast
1:35 AM 35.6 °F 29.2 °F 33.8 °F 93% 30.09 in 0.8 mi WSW 8.1 mph - N/A   Overcast
1:55 AM 35.6 °F 30.7 °F 33.8 °F 93% 30.10 in 1.8 mi West 5.8 mph - N/A   Overcast
2:35 AM 35.6 °F 28.6 °F 33.8 °F 93% 30.10 in 1.5 mi WSW 9.2 mph - N/A   Overcast
2:55 AM 35.6 °F 31.7 °F 33.8 °F 93% 30.10 in 0.8 mi WNW 4.6 mph - N/A   Overcast
3:15 AM 35.6 °F 30.7 °F 33.8 °F 93% 30.10 in 0.8 mi WSW 5.8 mph - N/A   Overcast
3:35 AM 35.6 °F 31.7 °F 33.8 °F 93% 30.11 in 0.5 mi WSW 4.6 mph - N/A   Overcast
3:55 AM 35.6 °F 32.8 °F 33.8 °F 93% 30.09 in 0.5 mi WSW 3.5 mph - N/A   Overcast
4:15 AM 35.6 °F - 33.8 °F 93% 30.09 in 0.5 mi Calm Calm - N/A   Overcast
4:55 AM 35.6 °F 31.7 °F 33.8 °F 93% 30.09 in 3.0 mi WSW 4.6 mph - N/A   Mostly Cloudy
5:15 AM 35.6 °F - 33.8 °F 93% 30.09 in 0.5 mi Calm Calm - N/A   Overcast
5:35 AM 35.6 °F 30.7 °F 33.8 °F 93% 30.08 in 0.5 mi ENE 5.8 mph - N/A   Overcast
5:55 AM 35.6 °F 32.8 °F 33.8 °F 93% 30.10 in 0.5 mi West 3.5 mph - N/A   Overcast
6:15 AM 35.6 °F 31.7 °F 33.8 °F 93% 30.08 in 0.2 mi NNE 4.6 mph - N/A   Overcast
6:35 AM 35.6 °F - 33.8 °F 93% 30.08 in 0.2 mi Calm Calm - N/A   Overcast
7:15 AM 35.6 °F - 32.0 °F 87% 30.10 in 0.2 mi Calm Calm - N/A   Overcast
7:35 AM 33.8 °F - 32.0 °F 93% 30.08 in 0.2 mi Calm Calm - N/A   Overcast
7:55 AM 35.6 °F - 33.8 °F 93% 30.10 in 0.2 mi Calm Calm - N/A   Overcast
8:15 AM 35.6 °F 31.7 °F 32.0 °F 87% 30.13 in 0.2 mi SW 4.6 mph - N/A   Overcast
8:35 AM 35.6 °F - 33.8 °F 93% 30.13 in 0.2 mi Calm Calm - N/A   Overcast
8:55 AM 35.6 °F - 33.8 °F 93% 30.12 in 0.2 mi Calm Calm - N/A   Overcast
9:15 AM 35.6 °F - 33.8 °F 93% 30.12 in 0.2 mi Calm Calm - N/A   Overcast
9:35 AM 35.6 °F 32.8 °F 33.8 °F 93% 30.13 in 0.2 mi SW 3.5 mph - N/A   Overcast
9:55 AM 35.6 °F - 33.8 °F 93% 30.12 in 0.8 mi Calm Calm - N/A   Overcast
10:15 AM 37.4 °F 34.9 °F 33.8 °F 87% 30.12 in 7.0 mi West 3.5 mph - N/A   Overcast
10:35 AM 37.4 °F 34.9 °F 35.6 °F 93% 30.12 in 4.0 mi West 3.5 mph - N/A   Overcast
10:55 AM 37.4 °F - 35.6 °F 93% 30.11 in 2.5 mi Calm Calm - N/A   Overcast
11:15 AM 37.4 °F 34.9 °F 35.6 °F 93% 30.10 in 1.0 mi West 3.5 mph - N/A   Overcast
11:35 AM 37.4 °F 33.8 °F 35.6 °F 93% 30.08 in 1.0 mi ENE 4.6 mph - N/A   Overcast
11:55 AM 35.6 °F 32.8 °F 33.8 °F 93% 30.07 in 0.5 mi ENE 3.5 mph - N/A   Overcast
12:15 PM 37.4 °F 34.9 °F 33.8 °F 87% 30.06 in 0.2 mi ENE 3.5 mph - N/A   Overcast
12:35 PM 37.4 °F 34.9 °F 35.6 °F 93% 30.05 in 0.2 mi East 3.5 mph - N/A   Overcast
12:55 PM 37.4 °F - 33.8 °F 87% 30.05 in 0.2 mi Calm Calm - N/A   Overcast
1:15 PM 37.4 °F 34.9 °F 35.6 °F 93% 30.05 in 0.2 mi ENE 3.5 mph - N/A   Overcast
1:35 PM 37.4 °F 34.9 °F 35.6 °F 93% 30.04 in 0.2 mi ENE 3.5 mph - N/A   Overcast
1:55 PM 37.4 °F 33.8 °F 33.8 °F 87% 30.03 in 0.2 mi ENE 4.6 mph - N/A   Overcast
2:35 PM 37.4 °F - 35.6 °F 93% 30.03 in 0.5 mi Calm Calm - N/A   Overcast
2:55 PM 37.4 °F - 35.6 °F 93% 30.02 in 0.2 mi Calm Calm - N/A   Overcast
3:15 PM 37.4 °F - 35.6 °F 93% 30.02 in 0.2 mi Calm Calm - N/A   Overcast
3:35 PM 35.6 °F 31.7 °F 35.6 °F 100% 30.00 in 0.2 mi ESE 4.6 mph - N/A   Overcast
3:55 PM 37.4 °F - 35.6 °F 93% 29.99 in 0.2 mi Calm Calm - N/A   Overcast
4:15 PM 37.4 °F - 35.6 °F 93% 29.99 in 0.2 mi Calm Calm - N/A   Overcast
4:55 PM 37.4 °F - 33.8 °F 87% 29.98 in 0.2 mi Calm Calm - N/A   Overcast
5:15 PM 35.6 °F - 33.8 °F 93% 29.98 in 0.5 mi Calm Calm - N/A   Overcast
5:35 PM 37.4 °F - 35.6 °F 93% 30.00 in 0.5 mi Calm Calm - N/A   Overcast
5:55 PM 35.6 °F - 33.8 °F 93% 29.99 in 0.5 mi Calm Calm - N/A   Overcast
6:15 PM 35.6 °F - 33.8 °F 93% 29.99 in 0.5 mi Calm Calm - N/A   Overcast
6:35 PM 35.6 °F - 33.8 °F 93% 29.98 in 0.2 mi Calm Calm - N/A   Overcast
6:55 PM 35.6 °F - 33.8 °F 93% 29.98 in 0.2 mi Calm Calm - N/A   Overcast
7:35 PM 35.6 °F - 33.8 °F 93% 29.97 in 0.2 mi Calm Calm - N/A   Overcast
7:55 PM 35.6 °F - 33.8 °F 93% 29.98 in 0.2 mi Calm Calm - N/A   Overcast
8:15 PM 35.6 °F - 33.8 °F 93% 29.98 in 0.2 mi Calm Calm - N/A   Overcast
8:35 PM 35.6 °F - 33.8 °F 93% 29.98 in 0.2 mi Calm Calm - N/A   Overcast
8:55 PM 35.6 °F - 33.8 °F 93% 29.96 in 0.2 mi Calm Calm - N/A   Overcast
9:15 PM 33.8 °F - 33.8 °F 100% 29.96 in 0.2 mi Calm Calm - N/A   Overcast
9:35 PM 35.6 °F - 33.8 °F 93% 29.95 in 0.2 mi Calm Calm - N/A   Overcast
9:55 PM 35.6 °F - 33.8 °F 93% 29.96 in 0.2 mi Calm Calm - N/A   Overcast
10:35 PM 35.6 °F 32.8 °F 33.8 °F 93% 29.96 in 0.2 mi West 3.5 mph - N/A   Overcast
10:55 PM 37.4 °F 32.1 °F 35.6 °F 93% 29.95 in 0.2 mi WSW 6.9 mph - N/A   Overcast
11:15 PM 37.4 °F 33.8 °F 35.6 °F 93% 29.95 in 0.5 mi WSW 4.6 mph - N/A   Overcast
11:35 PM 37.4 °F 32.8 °F 35.6 °F 93% 29.94 in 0.5 mi NW 5.8 mph - N/A   Overcast
11:55 PM 35.6 °F - 33.8 °F 93% 29.95 in 0.5 mi Calm Calm - N/A   Overcast